This demonstration page uses our WeatherBlox Daily Observations layout. Learn more.

Left ArrowRight Arrow

Hourly Observations for April 20, 2021

Temp ( °F °C ) Dew Point ( °F °C ) Humidity (%) Winds ( mph kmh ) Pressure ( in mb ) Visibility ( mi km ) Precip ( " mm )
12:56 am 00:56 Cloudy 31 -0.6 24 -4.4 76 76 NW 10 17 30.26 1025 10 16 0.00 0.00
1:56 am 01:56 Clear 29 -1.7 24 -4.4 82 82 NW 9 15 30.27 1025 10 16 0.00 0.00
2:56 am 02:56 Clear 29 -1.7 24 -4.4 82 82 NNW 9 15 30.27 1025 10 16 0.00 0.00
3:56 am 03:56 Clear 28 -2.2 24 -4.4 85 85 NW 8 13 30.27 1025 10 16 0.00 0.00
4:56 am 04:56 Clear 27 -2.8 23 -5 85 85 NW 7 11 30.28 1026 10 16 0.00 0.00
5:56 am 05:56 Clear 23 -5 19 -7.2 85 85 WNW 7 11 30.29 1026 10 16 0.00 0.00
6:56 am 06:56 Sunny 23 -5 20 -6.7 88 88 NW 7 11 30.30 1026 10 16 0.00 0.00
7:56 am 07:56 Sunny 27 -2.8 24 -4.4 89 89 WNW 7 11 30.31 1026 10 16 0.00 0.00
8:56 am 08:56 Sunny 32 0 27 -2.8 82 82 NW 8 13 30.30 1026 10 16 0.00 0.00
9:56 am 09:56 Sunny 34 1.1 25 -3.9 70 70 W 6 9 30.29 1026 10 16 0.00 0.00
10:56 am 10:56 Sunny 38 3.3 23 -5 55 55 NW 9 15 30.27 1025 10 16 0.00 0.00
11:56 am 11:56 Cloudy 39 3.9 25 -3.9 57 57 WSW 8 13 30.26 1025 10 16 0.00 0.00
12:56 pm 12:56 Cloudy 41 5 24 -4.4 51 51 W 9 15 30.24 1024 10 16 0.00 0.00
1:56 pm 13:56 Mostly Cloudy 41 5 24 -4.4 51 51 WNW 8 13 30.22 1024 10 16 0.00 0.00
2:34 pm 14:34 Mostly Cloudy with Light Rain 39 4 30 -1 70 70 VRB 5 7 30.24 1024 10 16 0.00 0.00
2:44 pm 14:44 Partly Cloudy 39 4 30 -1 70 70 W 5 7 30.23 1024 10 16 0.00 0.00
2:56 pm 14:56 Mostly Cloudy with Light Rain 39 3.9 29 -1.7 67 67 W 10 17 30.22 1023 9 14 0.00 0.00
3:03 pm 15:03 Mostly Cloudy with Light Rain 39 4 30 -1 70 70 W 10 17 30.23 1024 10 16 0.00 0.00
3:16 pm 15:16 Mostly Cloudy with Light Rain 41 5 28 -2 61 61 WSW 12 19 30.21 1023 10 16 0.00 0.00
3:24 pm 15:24 Partly Cloudy 43 6 30 -1 61 61 W 10 17 30.20 1023 10 16 0.00 0.00
3:56 pm 15:56 Mostly Cloudy 41 5 31 -0.6 67 67 NNW 13 20 30.20 1023 10 16 0.00 0.00
4:03 pm 16:03 Mostly Cloudy 41 5 28 -2 61 61 NNW 10 17 30.20 1023 10 16 0.00 0.00
4:56 pm 16:56 Mostly Cloudy 41 5 30 -1.1 65 65 N 8 13 30.19 1022 10 16 0.00 0.00
5:56 pm 17:56 Mostly Cloudy 42 5.6 26 -3.3 53 53 WNW 16 26 30.21 1023 10 16 0.00 0.00
6:06 pm 18:06 Mostly Cloudy with Light Snow 37 3 28 -2 70 70 NNW 13 20 30.23 1024 2 3 0.00 0.00
6:19 pm 18:19 Cloudy with Light Snow 37 3 32 0 81 81 N 8 13 30.22 1024 9 14 0.02 0.51
6:56 pm 18:56 Mostly Cloudy 40 4.4 30 -1.1 68 68 N 17 28 30.22 1023 10 16 0.02 0.51
7:56 pm 19:56 Mostly Cloudy 38 3.3 31 -0.6 76 76 N 10 17 30.23 1024 10 16 0.00 0.00
8:56 pm 20:56 Partly Cloudy 37 2.8 27 -2.8 67 67 NNW 8 13 30.24 1024 10 16 0.00 0.00
9:56 pm 21:56 Clear 34 1.1 24 -4.4 67 67 NNW 7 11 30.27 1025 10 16 0.00 0.00
10:56 pm 22:56 Clear 31 -0.6 25 -3.9 79 79 NW 6 9 30.28 1026 10 16 0.00 0.00
11:56 pm 23:56 Clear 28 -2.2 23 -5 81 81 WNW 7 11 30.30 1026 10 16 0.00 0.00

Powered by AerisWeather